Torna al catalogo

COSMOS 2491 DEB

LostPO
NORAD 45108·DEBRIS·🇷🇺 Russia

Lanciato Dec 25, 2013 da Plesetsk Cosmodrome

Loading…

Prossimi Passaggi (prossime 24 ore)

TLE

ObsoletoSource: Space-Track

Epoca: Aug 4, 2020, 06:39 UTC

1 45108U 13076X   20217.27709459 -.00002938  00000-0 -25933-1 0  9997
2 45108  82.4909  68.9853 0062004 107.2343 253.5526 12.27058637 25166

Traccia COSMOS 2491 DEB in tempo reale con AllMySat

Download on the App Store